Location: C�mpuri de-Sus
(45.9500°N, 22.5500°E)
Time: 04:56:06
(UTC+00:00)

Cosmos 839 Rocket - Pass Details

Date: 01 June 2022
Orbit: 968 x 2085 km, 65.9° (Epoch: 06 July)

Event Time Altitude Azimuth Distance (km) Brightness Sun altitude
Rises 23:44:07 0° 313° (NW) 3,766 7.4 -19.7°
Reaches altitude 10° 23:47:16 10° 297° (WNW) 2,904 6.6 -19.5°
Maximum altitude 23:51:59 20° 252° (WSW) 2,398 5.7 -19.3°
Enters shadow 23:53:02 20° 241° (WSW) 2,474 5.7 -19.2°
